User: anonymous   Login
Location: Oshawa
(43.9000°N, 78.8670°W)
Time: 18:29:13
(UTC-04:00)
Language:

Cosmos 1707 Rocket - Orbit

View from above orbital plane
View from above orbital plane
View from above satellite
View from above satellite

Ground track
Ground track

The orbit data is extracted from the following two-line orbital elements,

1 16327U 85113B   15085.50524742  .00000462  00000-0  53690-4 0  9994
2 16327 082.5340 132.9535 0020074 147.5455 332.1306 14.83076723581266
Epoch (UTC): 26 March 2015 12:07:33
Eccentricity: 0.0020074
inclination: 82.5340°
perigee height: 605 km
apogee height: 633 km
right ascension of ascending node: 132.9535°
argument of perigee: 147.5455°
revolutions per day: 14.83076723
mean anomaly at epoch: 332.1306°
orbit number at epoch: 58126

The dashed part of the orbit path shows where the satellite is in the earth's shadow,  

DLR